RH
63 62 55 51 48 47 42 39 41 40 56 78 80 84 82 82 80 79 80 84 86 84 82 80 79 79 80
59 56 55 55 53 48 43 50 53 51 81 81 83 83 83 83 81 82 84 79 73 76 84 81 81 80 80
65 64 61 57 54 49 51 55 56 56 54 53 58 85 88 86 85 80 81 80 74 73 73 80 83 82 82
65 64 62 61 61 60 59 59 56 52 54 58 59 66 64 71 74 72 65 68 72 72 78 79 79 80 80
68 70 70 68 66 70 72 74 62 52 49 50 50 47 47 46 46 47 62 78 77 76 80 80 79 82 90
83 82 79 81 86 82 76 72 69 58 58 54 66 64 57 59 57 69 76 80 84 84 81 81 83 84 84
99 96 97 83 76 66 64 67 70 56 75 83 67 59 51 50 49 58 79 82 81 81 81 86 81 77 78
77 74 68 63 62 62 65 70 79 72 85 97 70 63 54 50 44 46 75 78 76 76 76 76 80 83 78
85 85 88 91 87 89 88 98 96 92 80 92 79 72 60 48 41 46 81 90 86 78 76 76 75 76 79
70 69 75 70 77 85 90 87 88 91 63 80 71 69 76 56 61 65 55 49 71 76 76 77 76 75 74
77 75 72 71 71 68 69 74 81 95 77 84 81 79 92 89 73 57 58 50 52 50 48 61 71 76 79
77 80 84 82 80 73 72 77 86 92 82 68 76 67 72 81 82 60 56 58 62 59 55 53 70 68 76
84 88 84 78 88 87 84 87 86 80 68 60 67 66 71 80 88 82 85 74 71 66 56 59 62 65 74
92 90 94 97 84 78 82 82 80 66 59 63 67 73 76 79 87 91 79 99 73 72 81 83 81 79 80
67 72 77 83 81 80 90 89 77 75 70 64 68 78 81 85 96 98 98 94 88 78 92 98 83 73 76
89 92 92 92 82 92 89 95 90 86 87 72 79 92 97 86 97 100 100 100 88 86 96 100 99 71 80
94 97 96 98 98 97 98 96 94 88 81 79 89 100 97 92 78 78 84 81 88 95 95 100 98 80 83
Wind_Speed
3 3 3 6 8 9 10 9 8 7 6 7 7 7 7 6 6 5 7 7 8 8 9 10 10 11 12
2 2 4 6 8 9 8 7 7 6 7 7 7 6 5 4 5 5 5 6 9 10 10 10 10 11 12
2 4 7 7 8 7 6 5 7 8 7 7 8 6 6 7 7 7 7 8 11 13 12 11 10 10 11
5 7 8 8 9 7 7 9 10 9 8 6 7 5 6 7 7 9 11 12 14 14 13 13 13 14 14
7 8 9 7 6 7 12 14 12 8 7 3 6 10 10 10 11 12 13 13 15 15 14 13 14 14 13
14 12 13 12 12 9 8 10 5 5 5 15 14 15 12 12 11 11 13 13 14 13 15 14 13 14 15
18 17 15 10 10 13 15 14 14 17 13 17 13 12 12 13 15 15 14 14 14 16 16 16 17 18 17
18 19 18 17 16 16 17 17 17 17 14 7 16 20 19 16 16 19 17 17 16 16 16 17 18 18 20
17 18 18 18 17 18 20 19 10 7 13 13 13 17 19 22 18 16 12 10 11 15 17 18 18 19 22
19 18 17 19 19 19 18 16 15 9 9 7 8 12 8 14 8 9 21 26 21 20 21 22 23 25 29
21 21 22 22 22 22 22 22 21 19 20 13 10 14 11 14 20 27 28 27 27 27 26 23 22 21 24
21 22 22 22 21 23 20 22 20 20 18 18 12 17 21 24 15 26 31 31 28 27 27 27 21 21 21
22 19 21 23 19 15 17 18 16 17 19 21 21 21 22 24 20 24 25 29 30 25 22 26 29 29 29
22 21 18 16 16 17 20 19 18 20 21 20 20 19 22 26 27 30 32 17 31 33 30 30 30 28 28
25 25 26 25 23 21 23 21 20 22 24 25 22 19 21 23 27 28 28 30 31 32 27 28 30 30 29
22 25 25 24 24 24 26 23 22 22 24 26 23 18 20 23 25 29 24 24 27 27 25 23 28 32 29
22 24 25 24 23 22 24 22 22 23 24 23 21 19 14 10 20 18 26 29 28 26 24 24 29 37 30
Wind_Direction
167 210 292 310 313 319 325 325 324 314 311 319 316 319 322 323 318 330 333 343 344 337 327 320 314 313 314
213 256 298 314 321 324 328 328 334 332 331 327 330 322 320 331 330 331 335 347 343 334 325 319 313 308 306
285 294 306 318 320 323 319 320 325 323 313 307 306 317 310 311 308 306 308 318 326 329 323 315 314 312 309
282 293 304 316 317 324 323 323 320 317 306 306 317 290 299 309 296 284 290 304 313 314 313 310 304 303 302
274 283 295 308 313 313 307 318 320 321 315 321 309 301 295 297 297 298 303 305 304 303 304 303 303 303 303
271 269 279 289 300 299 303 310 319 314 318 311 318 312 302 308 304 311 306 306 308 298 299 295 299 302 302
272 274 275 281 288 289 286 285 280 292 299 309 314 316 319 311 305 302 301 299 299 294 292 291 293 292 290
267 275 279 283 278 276 277 279 280 286 297 255 305 304 310 307 305 302 296 294 294 293 292 291 290 289 288
264 268 270 266 265 264 257 260 266 253 292 278 288 302 307 309 313 310 301 302 306 302 296 293 290 287 283
278 272 266 262 260 261 271 266 267 280 286 244 286 304 304 298 303 286 291 296 299 296 293 290 288 286 286
276 278 278 275 265 261 262 265 262 259 272 275 275 284 274 282 294 299 301 305 304 303 301 296 291 287 289
274 273 279 285 278 274 271 264 263 263 270 273 266 277 281 286 286 297 300 301 302 301 301 301 291 288 284
268 267 271 279 282 271 262 263 258 259 269 274 278 281 277 274 273 283 292 295 292 297 298 296 297 299 295
268 274 272 263 265 262 263 261 261 267 272 275 275 274 275 275 277 278 283 275 289 291 292 293 292 290 288
273 274 271 265 265 259 258 254 255 264 276 283 284 280 275 275 275 272 273 276 279 288 289 286 292 291 288
278 274 267 253 256 263 256 247 251 262 272 283 289 287 282 280 260 261 266 264 278 281 280 277 284 290 286
277 273 267 264 257 245 249 244 252 264 273 279 279 269 264 266 273 259 260 270 274 275 273 265 267 283 285